STARLINK-11320, 61942

Orbit data source: Space-Track

STARLINK-11320, 61942 is a payload satellite owned by SpaceX/Seattle (US) in LEO that was launched on Thu, 14 Nov 2024 UTC via an FALCON 9 launch vehicle from the Air Force Western Test Range (AFWTR). Payload-class satellites include a variety of spacecraft equipped with specific instruments for various scientific and technological missions. These include communications satellites like Starlink; space stations such as the ISS; scientific satellites like the Hubble; Earth observation satellites from companies like Planet Labs, Umbra, and HawkEye 360; GPS; miniature CubeSats for education and research; and military/defense satellites.

Loading next visibility...
Identifier
61942, 2024-209D
Orbit
LEO
Country
Flag of USUS
Related business
Manufacturer
SpaceX/Seattle
Mission
Operational Commercial Communications
Bus & Motor
STARLINK V2MD, Unknown motor
Mass
960 kg wet, ~910 kg dry
Launch date (UTC)
2024-11-14 (2 years ago)
Launch vehicle
FALCON 9
Launch site
Air Force Western Test Range (AFWTR)
Object type
Payload
Rocket body
Debris
Shape & HBR
Box + 2 Pan, 18.1 m
Radar Cross Section
36.964 m², Large (>1 m²)

Expand to show TLE details & history
Last TLE update: 9 hours ago

TLE from 9 hours ago
0 STARLINK-11320
1 61942U 24209D   26171.45443138  .00137017  00000-0  11175-2 0  9994
2 61942  53.1568 225.0100 0001032  91.3274 268.7862 15.69704934 92811
Epoch: 2026-06-20T10:54Z
TLE epoch observation values (Epoch: 2026-06-20T10:54:22.871Z)
Latitude
-0.00002°
Longitude
152.74587°
Altitude
360.671 km
Speed
7.694 km/s
True Right ascension
15h 00m 02s
True Declination
0° 00' 00"
Sunlit
Object was in full shadow at epoch
Visualization orbit readout
Latitude
Unknown
Longitude
Unknown
Altitude
Unknown
Speed
Unknown
Apparent Right ascension
Unknown
Apparent Declination
Unknown
Sunlit
N/A
Visualization observer readout
Local Sidereal Time
07:18:16
Azimuth
Unknown
Elevation
Unknown
Doppler factor
Unknown
Orbital elements
Apogee altitude
360.698 km
Perigee altitude
359.307 km
Semi-major axis
6,738.139 km
Eccentricity
0.0001
Inclination
53.1568°
RAAN
225.01°
Arg. of periapsis
91.3274°
True anomaly
268.77438°
Mean anomaly
268.7862°
Eccentric anomaly
268.78029°
Mean motion
3.92404 °/min
Orbital period
91.74 mins
BSTAR
0.0011175
Loading maneuver chart data...
Computing Atmospheric mass density...
Loading historical data...
Loading historical data...
Loading historical data...
Loading historical data...
Loading historical data...
Loading historical data...
Loading historical data...

Documentation

Showing up to 5 results
|